Lid_Strength_Index
3 2 1 1 1 -0 -1 -1 -2 -2 -2 -2 -2 -1 -0 0 0 -0 0 -0 -0 0 0 -1 -1 -1 1 6 6 2 0 0 4 4 5 6 8 8 10 10 9 11 10 9 8 9 10
3 2 1 1 0 -1 -1 -2 -2 -2 -2 -2 -1 -1 -0 0 -0 -0 0 0 0 0 0 -0 -1 -1 3 9 2 1 2 3 5 5 6 6 8 8 9 9 10 9 9 9 9 9 10
4 2 2 1 0 -1 -1 -1 -1 -1 -1 -1 -1 -0 -0 -1 -1 -1 -1 0 0 0 0 0 -1 2 6 7 3 2 3 4 4 5 7 6 6 8 9 11 9 10 12 11 10 9 10
4 2 2 1 -0 -1 -0 -1 -1 -1 -0 0 0 -0 -1 -1 -1 -1 -1 -1 -1 -0 -0 -0 -0 3 8 2 2 4 3 5 4 4 6 6 6 8 9 9 10 12 13 15 11 10 10
4 3 2 1 0 -1 -1 -1 -1 -1 -1 -0 -0 -0 -1 -1 -1 -1 -1 -1 -1 -1 -0 -0 3 5 8 1 5 4 4 6 5 5 6 6 6 9 10 12 14 13 16 15 13 10 10
4 3 2 1 1 -1 -1 -1 -1 -1 -1 -1 -0 0 0 -0 -0 -0 -1 -0 0 0 1 2 3 7 6 7 5 5 4 4 6 7 7 8 10 12 12 14 18 16 17 15 16 12 12
4 4 3 2 1 0 -0 -1 -1 -1 -1 -1 -0 0 0 0 -1 -0 1 2 5 6 5 7 7 7 7 5 4 6 5 6 6 8 11 9 13 14 14 13 14 15 16 17 14 12 13
4 5 3 2 2 1 0 -0 -0 -0 -1 -1 -1 -0 -0 0 -1 -1 1 5 6 4 8 5 5 6 5 5 8 6 4 8 8 12 10 12 14 12 11 12 13 14 15 16 13 11 12
3 4 5 3 2 1 1 0 -0 0 0 -0 -0 -0 -0 -0 -0 -0 2 4 2 2 8 7 5 6 6 5 8 8 6 7 10 11 11 13 12 11 12 13 13 14 15 15 15 12 11
3 4 4 4 2 2 1 1 0 0 0 1 0 1 1 0 1 1 3 1 0 1 12 11 8 7 5 5 9 5 5 7 9 12 11 12 11 11 12 13 13 15 11 12 12 14 19
3 3 4 5 3 2 2 1 1 1 1 1 1 1 1 1 2 3 2 1 1 3 19 9 8 4 5 8 8 8 5 6 11 11 10 13 12 12 12 11 10 12 10 11 12 13 14
2 3 3 4 4 3 2 2 2 2 1 2 1 1 2 2 2 2 1 2 3 13 19 11 8 9 9 8 8 7 8 6 7 9 10 11 9 10 10 9 9 9 11 11 11 13 19
2 3 3 4 5 3 2 2 2 2 1 2 2 3 3 2 4 2 2 3 13 17 10 12 11 9 10 10 10 9 10 10 12 14 14 11 10 8 8 10 9 9 13 20 19 20 21
3 3 3 4 6 4 3 2 2 1 2 3 4 4 4 3 2 2 3 9 16 12 11 8 9 9 11 10 10 9 10 12 10 10 13 15 17 10 8 10 12 12 14 18 22 22 20
3 3 4 4 5 5 3 2 2 2 2 4 4 3 4 4 3 3 6 14 14 11 9 10 10 11 11 10 10 10 10 11 10 9 13 14 14 9 8 8 9 13 15 12 17 16 19
3 3 3 4 5 5 5 3 2 2 2 4 4 4 5 3 3 5 9 12 11 8 8 8 13 10 13 11 11 11 11 9 10 8 8 11 15 10 9 8 9 11 10 16 16 22 23
3 3 3 4 5 4 5 5 3 3 3 3 4 6 4 3 4 6 13 12 10 8 8 9 10 11 10 11 10 11 11 9 8 9 9 10 12 13 11 12 13 13 14 14 14 16 20
3 3 3 4 5 5 4 5 5 3 3 5 5 10 4 3 9 8 11 10 10 9 8 9 9 10 11 11 11 12 12 10 8 9 11 10 13 17 14 10 10 11 13 13 17 18 16
2 3 3 4 5 5 5 5 5 5 4 6 7 7 3 4 12 11 9 9 9 9 9 9 10 9 10 11 13 12 11 8 8 9 11 11 14 19 17 14 12 13 12 13 14 14 17
2 3 3 4 5 5 5 5 6 6 6 7 7 12 6 6 7 9 10 10 10 8 8 8 9 9 10 11 11 12 11 9 8 8 8 9 13 15 19 16 13 15 13 12 13 17 15
2 3 3 4 5 5 5 5 5 6 6 9 8 10 10 11 10 9 9 10 10 10 8 8 9 9 11 13 12 13 11 10 9 8 9 10 14 14 13 12 12 13 13 12 14 13 16
2 3 4 5 6 6 6 5 5 5 6 9 11 10 10 10 10 11 11 11 10 10 10 10 10 9 10 11 11 12 11 11 12 10 12 10 15 14 16 12 12 14 13 12 12 12 13
2 4 4 5 6 6 6 6 6 6 5 9 10 10 11 11 11 12 12 11 10 9 9 8 9 10 11 10 9 9 9 9 10 12 12 13 14 16 18 14 15 18 15 14 13 12 13
2 4 4 4 6 6 6 6 6 6 7 8 9 11 13 13 13 12 11 11 11 10 11 9 9 10 9 7 8 8 9 10 10 10 10 13 14 15 18 17 23 15 12 12 13 12 11
2 3 4 4 6 7 7 7 6 7 7 8 9 10 13 16 13 13 12 12 11 10 11 10 10 9 8 10 12 14 14 13 12 11 11 11 13 17 20 20 16 14 14 14 14 14 12
2 2 3 4 5 6 7 7 7 7 8 8 10 9 11 14 16 14 13 12 13 13 12 11 9 8 9 11 13 17 18 16 17 15 13 12 12 16 17 20 21 16 13 12 12 17 12
2 2 3 4 5 5 7 7 7 7 8 9 10 10 11 13 12 13 15 14 12 12 13 12 11 11 10 13 15 17 18 15 18 18 18 17 16 17 18 19 16 13 12 11 18 16 11
4 4 4 4 4 5 6 7 7 7 8 9 10 10 11 13 12 12 12 14 13 13 15 12 12 12 12 15 15 16 17 16 17 15 16 16 18 18 17 19 20 12 13 15 13 12 11
4 4 4 5 4 5 5 6 7 7 7 9 10 10 10 13 12 11 11 10 12 12 13 13 14 13 12 14 14 15 16 15 16 19 14 17 15 17 16 16 13 12 12 11 11 11 12